Tracking 32936 objects as of 16-Jan-2026
HD Live streaming from Space Station
objects crossing your sky now

GAOFEN DUOMO (GFDM)

Track GAOFEN DUOMO (GFDM) now!
10-day predictions


NORAD ID: 45856
Int'l Code: 2020-042A
Perigee: 638.5 km
Apogee: 654.0 km
Inclination: 97.8 °
Period: 97.5 minutes
Semi major axis: 7017 km
RCS: Unknown
Launch date: July 3, 2020
Source: People's Republic of China (PRC)
Launch site: Taiyaun Space Center, China (TSC)
Your satellite tracking list
Your tracking list is empty




NASA's NSSDC Master Catalog

Two Line Element Set (TLE):
1 45856U 20042A   26016.57518495  .00000317  00000-0  52058-4 0  9990
2 45856  97.7986  81.8219 0010999 196.4618 163.6237 14.76900180298630
Source of the keplerian elements: AFSPC